Regional Weather Roundup
Issued by NWS

Home | Current Version | Previous Version | Graphics & Text | Print | Product List | Glossary On
Versions: 1 2 3 4 5 6 7 8 9 10 11 12 13 14 15 16 17 18 19 20 21 22 23 24 25 26 27 28 29 30 31 32 33 34 35 36 37 38 39 40 41 42 43 44 45 46 47 48 49 50
000
ASUS43 KLOT 300212
RWRIL

ILLINOIS REGIONAL WEATHER ROUNDUP
NATIONAL WEATHER SERVICE CHICAGO/ROMEOVILLE IL
900 PM CDT MON JUN 29 2015

NOTE: "FAIR" INDICATES FEW OR NO CLOUDS BELOW 12,000 FEET WITH NO
SIGNIFICANT WEATHER AND/OR OBSTRUCTIONS TO VISIBILITY.

* THESE STATIONS ARE NOT UNDER NWS QUALITY CONTROL. THEY ALSO MAY NOT
  REPORT WEATHER SUCH AS PRECIPITATION OR FOG.

ILZ001-002-007-009-015-016-024-300300-
NORTHWEST ILLINOIS

CITY           SKY/WX    TMP DP  RH WIND       PRES   REMARKS
MOLINE         CLOUDY    70  62  76 SW8       29.80F
STERLING*      PTCLDY    68  64  88 W5        29.79S
SAVANNA*       MOCLDY    74  65  72 NW5       29.79R
$$

ILZ003-004-008-010-011-017-018-300300-
NORTH CENTRAL ILLINOIS

CITY           SKY/WX    TMP DP  RH WIND       PRES   REMARKS
ROCKFORD       MOCLDY    68  65  90 CALM      29.80F
FREEPORT*      PTCLDY    68  64  86 W3        29.81R
ROCHELLE*      PTCLDY    66  65  95 CALM      29.80S
DE KALB*       PTCLDY    64  61  89 CALM      29.81S
PERU*          MOCLDY    68  65  89 CALM      29.81S
$$

ILZ005-006-012>014-019>023-300300-
NORTHEAST ILLINOIS

CITY           SKY/WX    TMP DP  RH WIND       PRES   REMARKS
CHICAGO-OHARE  PTCLDY    68  65  90 SW3       29.79S
CHICAGO-MIDWAY PTCLDY    69  65  86 SW6       29.79S
AURORA         PTCLDY    67  63  87 S5        29.80S
LANSING*       PTCLDY    67  63  87 S5        29.81S
JOLIET*        MOCLDY    67  66  94 CALM      29.80F
WAUKEGAN       CLEAR     63  61  93 CALM      29.79S FOG
DUPAGE AIRPORT CLEAR     64  62  93 CALM      29.79S
KANKAKEE*      LGT RAIN  65  65  97 CALM      29.82S
WHEELING       CLEAR     69  63  81 SW3       29.80S
MORRIS*        MOCLDY    68  65  91 CALM      29.78F
ROMEOVILLE*    PTCLDY    67  65  94 S5        29.80S
NORTHERLY ISL    N/A     64  61  90 S1          N/A
$$

LMZ740>746-300300-
SOUTHERN LAKE MICHIGAN

STATION/POSITION SKY/WX   TEMP    WIND        PRES    VSBY  WAVE
                          AIR SEA DIR/SP/G                  HT/PER
                          (F)     (DEG/KT/KT) (MB)    (MI)  (FT/S)
HARRISON CRIB              64     110/  6/  7   N/A
BURNHAM HARBOR             64     170/  2       N/A
CALUMET HARBOR             66      70/  3/  5   N/A
BURNS HARBOR               67      60/  6/  6 1010.2R
MICHIGAN CITY              68      70/  3/  5   N/A
MICHIGAN CITY 6N           67 66  160/  6/  6   N/A           0
ST. JOSEPH                 66 65                N/A           0
$$

ILZ025>027-034>036-040-047-049-050-058-095>099-300300-
WEST-CENTRAL ILLINOIS

CITY           SKY/WX    TMP DP  RH WIND       PRES   REMARKS
QUINCY         CLEAR     70  66  87 W7        29.84F
GALESBURG*     PTCLDY    71  65  81 SW6       29.82S
MACOMB*        CLEAR     67  65  92 CALM      29.85F
JACKSONVILLE*  MOCLDY    71  67  85 SW5       29.84S
PITTSFIELD*    PTCLDY    71  67  88 W3        29.85F
$$

ILZ028>032-037-038-041>044-048-051>054-059>061-300300-
CENTRAL ILLINOIS

CITY           SKY/WX    TMP DP  RH WIND       PRES   REMARKS
PONTIAC        PTCLDY    69  68  97 CALM      29.82F
BLOOMINGTON    CLEAR     72  65  78 W6        29.83F
DECATUR        CLEAR     73  64  73 W6        29.83S
PEORIA         PTCLDY    75  66  73 W3        29.81F
LACON*         PTCLDY    70  65  84 SW3       29.79F
LINCOLN*       PTCLDY    73  65  76 CALM      29.83S
SPRINGFIELD    MOCLDY    73  68  84 CALM      29.84S
TAYLORVILLE    PTCLDY    68  66  94 CALM      29.85R
$$

ILZ033-039-045-046-055>057-062-063-300300-
EAST-CENTRAL ILLINOIS

CITY           SKY/WX    TMP DP  RH WIND       PRES   REMARKS
CHAMPAIGN      CLEAR     68  65  90 W6        29.83S
DANVILLE*      RAIN      64  64  98 CALM      29.80S
RANTOUL*       CLOUDY    73  67  83 NE3       29.83R
MATTOON        PTCLDY    70  65  84 SW3       29.84R
PARIS*         MOCLDY    69  67  90 SW5       29.84R
$$

ILZ079-100>102-300300-
SOUTHWEST ILLINOIS

CITY           SKY/WX    TMP DP  RH WIND       PRES   REMARKS
ALTON          CLOUDY    73  73 100 CALM      29.85S
BELLEVILLE     CLOUDY    76  71  85 W2        29.84S
CAHOKIA*       MOCLDY    73  65  75 VRB5      29.85S
SPARTA*        MOCLDY    76  68  75 CALM      29.87S
$$

ILZ064>066-069>071-074>076-080>082-084>086-088>090-092>094-300300-
SOUTH-CENTRAL ILLINOIS

CITY           SKY/WX    TMP DP  RH WIND       PRES   REMARKS
CARBONDALE     PTCLDY    75  67  76 CALM      29.86R
CAIRO*         CLEAR     79  67  66 CALM      29.86R HX  81
EFFINGHAM*     CLOUDY    71  63  75 CALM      29.87S
MARION         CLEAR     73  68  83 CALM      29.87R
MT. VERNON     MOCLDY    70  63  78 CALM      29.87R
CENTRALIA*     CLOUDY    71  67  88 CALM      29.87S
SALEM*         CLOUDY    72  68  87 CALM      29.87R
METROPOLIS*    CLEAR     76  70  81 CALM      29.87R
$$

ILZ067-068-072-073-078-083-087-091-300300-
SOUTHEAST ILLINOIS

CITY           SKY/WX    TMP DP  RH WIND       PRES   REMARKS
LAWRENCEVILLE  PTCLDY    73  65  75 W5        29.85R
FLORA*         PTCLDY    73  65  75 W7        29.86S
FAIRFIELD*     PTCLDY    71  67  87 CALM      29.85R
HARRISBURG*    CLEAR     73  67  82 CALM      29.87R
ROBINSON*      MOCLDY    70  64  82 W6        29.85R
CARMI*         CLEAR     73  61  67 W5        29.85S
$$

ABBREVIATIONS USED IN REMARKS
   TC - TEMPERATURE IN CELSIUS
  WCI - WIND CHILL INDEX
   HX - HEAT INDEX
  VSB - VISIBILITY
$$




USA.gov is the U.S. government's official web portal to all federal, state and local government web resources and services.